Time,TemperatureF,DewpointF,PressureIn,WindDirection,WindDirectionDegrees,WindSpeedMPH,WindSpeedGustMPH,Humidity,HourlyPrecipIn,Conditions,Clouds,dailyrainin,SoftwareType,DateUTC
2013-04-10 00:00:00,69.4,47.8,29.86,ENE,58,0.0,3.0,46,0.00,CLR,,0.00,WeatherDisplay:10.37,2013-04-10 04:00:00,
2013-04-10 00:05:00,69.3,47.6,29.85,NE,46,0.0,2.0,46,0.00,FEW,,0.00,WeatherDisplay:10.37,2013-04-10 04:05:00,
2013-04-10 00:10:00,69.3,47.6,29.85,NE,45,0.0,2.0,46,0.00,FEW,,0.00,WeatherDisplay:10.37,2013-04-10 04:10:00,
2013-04-10 00:15:00,69.1,47.4,29.85,East,80,0.0,2.0,46,0.00,FEW,,0.00,WeatherDisplay:10.37,2013-04-10 04:15:00,
2013-04-10 00:20:00,68.9,47.8,29.85,East,95,0.0,2.0,47,0.00,FEW,,0.00,WeatherDisplay:10.37,2013-04-10 04:20:00,
2013-04-10 00:30:00,68.7,48.2,29.85,East,90,0.0,4.0,48,0.00,FEW,,0.00,WeatherDisplay:10.37,2013-04-10 04:30:00,
2013-04-10 00:35:00,68.5,48.1,29.85,East,84,0.0,2.0,48,0.00,FEW,,0.00,WeatherDisplay:10.37,2013-04-10 04:35:00,
2013-04-10 00:40:00,68.4,48.5,29.84,ENE,64,0.0,2.0,49,0.00,FEW,,0.00,WeatherDisplay:10.37,2013-04-10 04:40:00,
2013-04-10 00:45:00,68.2,48.3,29.84,East,84,2.0,3.0,49,0.00,FEW,,0.00,WeatherDisplay:10.37,2013-04-10 04:45:00,
2013-04-10 00:55:00,67.8,49.5,29.83,ENE,74,1.0,3.0,52,0.00,FEW,,0.00,WeatherDisplay:10.37,2013-04-10 04:55:00,
2013-04-10 01:00:00,67.5,49.8,29.83,ENE,77,0.0,2.0,53,0.00,FEW,,0.00,WeatherDisplay:10.37,2013-04-10 05:00:00,
2013-04-10 01:05:00,67.3,50.1,29.83,ENE,68,1.0,2.0,54,0.00,CLR,,0.00,WeatherDisplay:10.37,2013-04-10 05:05:00,
2013-04-10 01:10:00,67.1,49.9,29.83,ENE,66,1.0,3.0,54,0.00,CLR,,0.00,WeatherDisplay:10.37,2013-04-10 05:10:00,
2013-04-10 01:15:00,66.7,50.1,29.83,ENE,67,1.0,3.0,55,0.00,CLR,,0.00,WeatherDisplay:10.37,2013-04-10 05:15:00,
2013-04-10 01:20:00,66.7,50.1,29.82,East,85,1.0,2.0,55,0.00,CLR,,0.00,WeatherDisplay:10.37,2013-04-10 05:20:00,
2013-04-10 01:25:00,66.7,50.5,29.83,ESE,110,1.0,2.0,56,0.00,CLR,,0.00,WeatherDisplay:10.37,2013-04-10 05:25:00,
2013-04-10 01:30:00,66.7,51.0,29.83,East,92,0.0,2.0,57,0.00,CLR,,0.00,WeatherDisplay:10.37,2013-04-10 05:30:00,
2013-04-10 01:35:00,66.7,51.0,29.83,ENE,63,0.0,1.0,57,0.00,CLR,,0.00,WeatherDisplay:10.37,2013-04-10 05:35:00,
2013-04-10 01:40:00,66.7,51.5,29.83,ENE,58,0.0,0.0,58,0.00,CLR,,0.00,WeatherDisplay:10.37,2013-04-10 05:40:00,
2013-04-10 01:45:00,66.7,51.5,29.83,NE,49,0.0,0.0,58,0.00,CLR,,0.00,WeatherDisplay:10.37,2013-04-10 05:45:00,
2013-04-10 01:50:00,66.7,52.0,29.83,East,84,0.0,0.0,59,0.00,CLR,,0.00,WeatherDisplay:10.37,2013-04-10 05:50:00,
2013-04-10 01:55:00,66.7,52.0,29.82,SE,126,0.0,0.0,59,0.00,CLR,,0.00,WeatherDisplay:10.37,2013-04-10 05:55:00,
2013-04-10 02:00:00,66.7,52.4,29.82,East,99,0.0,0.0,60,0.00,CLR,,0.00,WeatherDisplay:10.37,2013-04-10 06:00:00,
2013-04-10 02:05:00,66.7,52.4,29.82,ESE,112,0.0,0.0,60,0.00,CLR,,0.00,WeatherDisplay:10.37,2013-04-10 06:05:00,
2013-04-10 02:10:00,66.7,52.9,29.82,ESE,112,1.0,2.0,61,0.00,CLR,,0.00,WeatherDisplay:10.37,2013-04-10 06:10:00,
2013-04-10 02:15:00,66.6,52.7,29.81,NE,35,0.0,2.0,61,0.00,CLR,,0.00,WeatherDisplay:10.37,2013-04-10 06:15:00,
2013-04-10 02:20:00,66.6,52.7,29.81,NNW,337,1.0,2.0,61,0.00,CLR,,0.00,WeatherDisplay:10.37,2013-04-10 06:20:00,
2013-04-10 02:25:00,66.4,52.5,29.81,West,271,0.0,2.0,61,0.00,CLR,,0.00,WeatherDisplay:10.37,2013-04-10 06:25:00,
2013-04-10 02:30:00,66.0,52.6,29.81,SSW,203,0.0,2.0,62,0.00,CLR,,0.00,WeatherDisplay:10.37,2013-04-10 06:30:00,
2013-04-10 02:35:00,65.8,52.9,29.80,SE,126,0.0,2.0,63,0.00,CLR,,0.00,WeatherDisplay:10.37,2013-04-10 06:35:00,
2013-04-10 02:40:00,65.7,53.1,29.80,SE,133,1.0,2.0,64,0.00,CLR,,0.00,WeatherDisplay:10.37,2013-04-10 06:40:00,
2013-04-10 02:45:00,65.5,53.0,29.80,South,180,0.0,2.0,64,0.00,CLR,,0.00,WeatherDisplay:10.37,2013-04-10 06:45:00,
2013-04-10 02:50:00,65.3,53.2,29.80,SE,133,0.0,2.0,65,0.00,CLR,,0.00,WeatherDisplay:10.37,2013-04-10 06:50:00,
2013-04-10 03:00:00,64.9,52.9,29.80,SE,134,0.0,3.0,65,0.00,CLR,,0.00,WeatherDisplay:10.37,2013-04-10 07:00:00,
2013-04-10 03:05:00,64.8,52.7,29.80,SSE,157,1.0,2.0,65,0.00,CLR,,0.00,WeatherDisplay:10.37,2013-04-10 07:05:00,
2013-04-10 03:10:00,64.6,53.0,29.80,ESE,115,1.0,3.0,66,0.00,CLR,,0.00,WeatherDisplay:10.37,2013-04-10 07:10:00,
2013-04-10 03:15:00,64.4,52.8,29.80,ENE,72,1.0,3.0,66,0.00,CLR,,0.00,WeatherDisplay:10.37,2013-04-10 07:15:00,
2013-04-10 03:20:00,64.2,52.6,29.80,NE,37,0.0,2.0,66,0.00,CLR,,0.00,WeatherDisplay:10.37,2013-04-10 07:20:00,
2013-04-10 03:25:00,64.0,52.4,29.80,ENE,67,0.0,2.0,66,0.00,CLR,,0.00,WeatherDisplay:10.37,2013-04-10 07:25:00,
2013-04-10 03:30:00,64.0,52.4,29.79,East,84,0.0,2.0,66,0.00,CLR,,0.00,WeatherDisplay:10.37,2013-04-10 07:30:00,
2013-04-10 03:35:00,63.9,52.7,29.80,ESE,121,2.0,4.0,67,0.00,CLR,,0.00,WeatherDisplay:10.37,2013-04-10 07:35:00,
2013-04-10 03:40:00,63.8,52.6,29.80,East,100,0.0,3.0,67,0.00,CLR,,0.00,WeatherDisplay:10.37,2013-04-10 07:40:00,
2013-04-10 03:45:00,63.7,52.5,29.80,ESE,109,1.0,2.0,67,0.00,CLR,,0.00,WeatherDisplay:10.37,2013-04-10 07:45:00,
2013-04-10 03:50:00,63.7,52.9,29.80,SE,128,1.0,3.0,68,0.00,CLR,,0.00,WeatherDisplay:10.37,2013-04-10 07:50:00,
2013-04-10 03:55:00,63.7,52.9,29.80,ESE,117,1.0,2.0,68,0.00,CLR,,0.00,WeatherDisplay:10.37,2013-04-10 07:55:00,
2013-04-10 04:00:00,63.7,52.9,29.80,ESE,123,2.0,6.0,68,0.00,CLR,,0.00,WeatherDisplay:10.37,2013-04-10 08:00:00,
2013-04-10 04:05:00,63.7,52.9,29.82,ESE,103,0.0,6.0,68,0.00,CLR,,0.00,WeatherDisplay:10.37,2013-04-10 08:05:00,
2013-04-10 04:10:00,63.4,52.6,29.83,SSE,159,2.0,8.0,68,0.00,CLR,,0.00,WeatherDisplay:10.37,2013-04-10 08:10:00,
2013-04-10 04:15:00,63.5,53.1,29.82,SSW,200,1.0,4.0,69,0.00,CLR,,0.00,WeatherDisplay:10.37,2013-04-10 08:15:00,
2013-04-10 04:20:00,63.7,53.3,29.82,WNW,283,1.0,5.0,69,0.00,CLR,,0.00,WeatherDisplay:10.37,2013-04-10 08:20:00,
2013-04-10 04:25:00,63.9,53.1,29.82,West,262,2.0,5.0,68,0.00,CLR,,0.00,WeatherDisplay:10.37,2013-04-10 08:25:00,
2013-04-10 04:30:00,64.0,53.2,29.82,SE,134,0.0,3.0,68,0.00,CLR,,0.00,WeatherDisplay:10.37,2013-04-10 08:30:00,
2013-04-10 04:35:00,63.9,52.7,29.83,ENE,61,1.0,2.0,67,0.00,CLR,,0.00,WeatherDisplay:10.37,2013-04-10 08:35:00,
2013-04-10 04:40:00,64.0,52.9,29.83,NW,321,0.0,2.0,67,0.00,CLR,,0.00,WeatherDisplay:10.37,2013-04-10 08:40:00,
2013-04-10 04:45:00,64.0,52.9,29.83,ENE,72,1.0,2.0,67,0.00,CLR,,0.00,WeatherDisplay:10.37,2013-04-10 08:45:00,
2013-04-10 04:50:00,64.2,53.0,29.82,SE,135,0.0,3.0,67,0.00,CLR,,0.00,WeatherDisplay:10.37,2013-04-10 08:50:00,
2013-04-10 04:55:00,64.4,53.2,29.83,ESE,112,1.0,2.0,67,0.00,CLR,,0.00,WeatherDisplay:10.37,2013-04-10 08:55:00,
2013-04-10 05:00:00,64.4,53.2,29.83,NE,50,0.0,2.0,67,0.00,CLR,,0.00,WeatherDisplay:10.37,2013-04-10 09:00:00,
2013-04-10 05:05:00,64.4,52.8,29.83,ENE,64,1.0,2.0,66,0.00,CLR,,0.00,WeatherDisplay:10.37,2013-04-10 09:05:00,
2013-04-10 05:10:00,64.4,52.8,29.83,ENE,72,1.0,3.0,66,0.00,CLR,,0.00,WeatherDisplay:10.37,2013-04-10 09:10:00,
2013-04-10 05:15:00,64.2,52.6,29.83,ESE,107,0.0,3.0,66,0.00,FEW,,0.00,WeatherDisplay:10.37,2013-04-10 09:15:00,
2013-04-10 05:20:00,64.4,52.8,29.83,SE,138,0.0,2.0,66,0.00,FEW,,0.00,WeatherDisplay:10.37,2013-04-10 09:20:00,
2013-04-10 05:30:00,64.2,52.2,29.85,NNE,12,1.0,4.0,65,0.00,FEW,,0.00,WeatherDisplay:10.37,2013-04-10 09:30:00,
2013-04-10 05:35:00,64.0,52.0,29.85,NNE,33,3.0,7.0,65,0.00,FEW,,0.00,WeatherDisplay:10.37,2013-04-10 09:35:00,
2013-04-10 05:40:00,63.4,51.5,29.85,ENE,60,5.0,7.0,65,0.00,FEW,,0.00,WeatherDisplay:10.37,2013-04-10 09:40:00,
2013-04-10 05:45:00,63.1,50.8,29.84,NE,54,1.0,6.0,64,0.00,FEW,,0.00,WeatherDisplay:10.37,2013-04-10 09:45:00,
2013-04-10 05:50:00,62.8,50.4,29.85,NE,51,2.0,6.0,64,0.00,FEW,,0.00,WeatherDisplay:10.37,2013-04-10 09:50:00,
2013-04-10 05:55:00,62.3,50.3,29.85,ENE,78,1.0,4.0,65,0.00,FEW,,0.00,WeatherDisplay:10.37,2013-04-10 09:55:00,
2013-04-10 06:00:00,62.1,50.2,29.85,ENE,62,2.0,3.0,65,0.00,FEW,,0.00,WeatherDisplay:10.37,2013-04-10 10:00:00,
2013-04-10 06:05:00,62.1,50.2,29.86,NE,43,2.0,3.0,65,0.00,FEW,,0.00,WeatherDisplay:10.37,2013-04-10 10:05:00,
2013-04-10 06:10:00,61.4,48.7,29.86,NE,49,2.0,3.0,63,0.00,FEW,,0.00,WeatherDisplay:10.37,2013-04-10 10:10:00,
2013-04-10 06:20:00,60.8,48.1,29.86,NE,54,2.0,6.0,63,0.00,FEW,,0.00,WeatherDisplay:10.37,2013-04-10 10:20:00,
2013-04-10 06:25:00,60.6,48.4,29.86,ENE,58,3.0,6.0,64,0.00,CLR,,0.00,WeatherDisplay:10.37,2013-04-10 10:25:00,
2013-04-10 06:30:00,60.3,48.0,29.86,ENE,66,2.0,5.0,64,0.00,CLR,,0.00,WeatherDisplay:10.37,2013-04-10 10:30:00,
2013-04-10 06:40:00,59.9,47.7,29.87,ENE,70,3.0,6.0,64,0.00,CLR,,0.00,WeatherDisplay:10.37,2013-04-10 10:40:00,
2013-04-10 06:45:00,59.7,47.5,29.87,ENE,61,2.0,6.0,64,0.00,CLR,,0.00,WeatherDisplay:10.37,2013-04-10 10:45:00,
2013-04-10 06:50:00,59.5,47.3,29.87,ENE,66,0.0,6.0,64,0.00,CLR,,0.00,WeatherDisplay:10.37,2013-04-10 10:50:00,
2013-04-10 06:55:00,59.5,47.3,29.88,East,80,0.0,2.0,64,0.00,CLR,,0.00,WeatherDisplay:10.37,2013-04-10 10:55:00,
2013-04-10 07:00:00,59.5,47.8,29.88,East,79,2.0,3.0,65,0.00,CLR,,0.00,WeatherDisplay:10.37,2013-04-10 11:00:00,
2013-04-10 07:05:00,59.7,47.5,29.88,East,90,1.0,3.0,64,0.00,SCT,,0.00,WeatherDisplay:10.37,2013-04-10 11:05:00,
2013-04-10 07:10:00,59.9,47.7,29.88,East,100,0.0,2.0,64,0.00,SCT,,0.00,WeatherDisplay:10.37,2013-04-10 11:10:00,
2013-04-10 07:15:00,59.9,47.7,29.88,East,88,1.0,2.0,64,0.00,SCT,,0.00,WeatherDisplay:10.37,2013-04-10 11:15:00,
2013-04-10 07:20:00,60.2,48.0,29.88,ENE,75,1.0,3.0,64,0.00,SCT,,0.00,WeatherDisplay:10.37,2013-04-10 11:20:00,
2013-04-10 07:30:00,60.8,48.1,29.89,ENE,76,0.0,3.0,63,0.00,SCT,,0.00,WeatherDisplay:10.37,2013-04-10 11:30:00,
2013-04-10 07:35:00,60.8,47.7,29.89,ENE,72,0.0,2.0,62,0.00,SCT,,0.00,WeatherDisplay:10.37,2013-04-10 11:35:00,
2013-04-10 07:40:00,61.0,47.9,29.90,ESE,109,0.0,2.0,62,0.00,SCT,,0.00,WeatherDisplay:10.37,2013-04-10 11:40:00,
2013-04-10 07:45:00,61.2,48.0,29.89,East,98,1.0,3.0,62,0.00,SCT,,0.00,WeatherDisplay:10.37,2013-04-10 11:45:00,
2013-04-10 07:50:00,61.2,48.0,29.89,ENE,76,1.0,3.0,62,0.00,SCT,,0.00,WeatherDisplay:10.37,2013-04-10 11:50:00,
2013-04-10 07:55:00,61.3,48.2,29.89,ENE,64,2.0,4.0,62,0.00,SCT,,0.00,WeatherDisplay:10.37,2013-04-10 11:55:00,
2013-04-10 08:00:00,61.5,48.8,29.89,ENE,60,1.0,3.0,63,0.00,SCT,,0.00,WeatherDisplay:10.37,2013-04-10 12:00:00,
2013-04-10 08:05:00,61.7,49.0,29.89,ENE,65,2.0,3.0,63,0.00,OVC,,0.00,WeatherDisplay:10.37,2013-04-10 12:05:00,
2013-04-10 08:10:00,61.9,49.1,29.90,ENE,69,0.0,3.0,63,0.00,OVC,,0.00,WeatherDisplay:10.37,2013-04-10 12:10:00,
2013-04-10 08:15:00,61.9,48.8,29.91,NE,52,0.0,2.0,62,0.00,OVC,,0.00,WeatherDisplay:10.37,2013-04-10 12:15:00,
2013-04-10 08:20:00,62.1,48.9,29.91,NE,46,0.0,2.0,62,0.00,OVC,,0.00,WeatherDisplay:10.37,2013-04-10 12:20:00,
2013-04-10 08:25:00,62.2,49.1,29.91,NE,56,0.0,2.0,62,0.00,OVC,,0.00,WeatherDisplay:10.37,2013-04-10 12:25:00,
2013-04-10 08:30:00,62.4,49.2,29.90,NE,45,1.0,2.0,62,0.00,OVC,,0.00,WeatherDisplay:10.37,2013-04-10 12:30:00,
2013-04-10 08:40:00,63.0,49.3,29.90,ENE,67,1.0,2.0,61,0.00,OVC,,0.00,WeatherDisplay:10.37,2013-04-10 12:40:00,
2013-04-10 08:45:00,63.1,49.5,29.89,East,86,0.0,2.0,61,0.00,OVC,,0.00,WeatherDisplay:10.37,2013-04-10 12:45:00,
2013-04-10 08:50:00,63.3,49.6,29.89,East,84,1.0,3.0,61,0.00,OVC,,0.00,WeatherDisplay:10.37,2013-04-10 12:50:00,
2013-04-10 08:55:00,63.7,50.0,29.89,ENE,64,0.0,3.0,61,0.00,OVC,,0.00,WeatherDisplay:10.37,2013-04-10 12:55:00,
2013-04-10 09:00:00,64.5,49.8,29.88,East,89,1.0,3.0,59,0.00,OVC,,0.00,WeatherDisplay:10.37,2013-04-10 13:00:00,
2013-04-10 09:10:00,65.8,50.1,29.89,ESE,118,0.0,4.0,57,0.00,OVC,,0.00,WeatherDisplay:10.37,2013-04-10 13:10:00,
2013-04-10 09:15:00,66.2,50.0,29.89,SSE,152,2.0,4.0,56,0.00,OVC,,0.00,WeatherDisplay:10.37,2013-04-10 13:15:00,
2013-04-10 09:20:00,66.0,50.3,29.89,SSE,161,0.0,3.0,57,0.00,OVC,,0.00,WeatherDisplay:10.37,2013-04-10 13:20:00,
2013-04-10 09:25:00,66.0,50.3,29.89,SSE,160,1.0,3.0,57,0.00,OVC,,0.00,WeatherDisplay:10.37,2013-04-10 13:25:00,
2013-04-10 09:30:00,66.2,50.0,29.89,South,182,1.0,5.0,56,0.00,OVC,,0.00,WeatherDisplay:10.37,2013-04-10 13:30:00,
2013-04-10 09:35:00,66.4,50.2,29.89,SSW,193,2.0,4.0,56,0.00,OVC,,0.00,WeatherDisplay:10.37,2013-04-10 13:35:00,
2013-04-10 09:40:00,66.9,50.7,29.89,South,186,1.0,3.0,56,0.00,OVC,,0.00,WeatherDisplay:10.37,2013-04-10 13:40:00,
2013-04-10 09:45:00,67.6,51.4,29.89,SE,129,2.0,4.0,56,0.00,OVC,,0.00,WeatherDisplay:10.37,2013-04-10 13:45:00,
2013-04-10 09:50:00,68.0,50.7,29.89,South,179,1.0,4.0,54,0.00,OVC,,0.00,WeatherDisplay:10.37,2013-04-10 13:50:00,
2013-04-10 09:55:00,68.0,50.7,29.89,SSW,192,1.0,3.0,54,0.00,OVC,,0.00,WeatherDisplay:10.37,2013-04-10 13:55:00,
2013-04-10 10:00:00,68.2,50.9,29.88,SE,143,2.0,4.0,54,0.00,OVC,,0.00,WeatherDisplay:10.37,2013-04-10 14:00:00,
2013-04-10 10:05:00,68.7,51.4,29.88,East,98,3.0,5.0,54,0.00,SCT,,0.00,WeatherDisplay:10.37,2013-04-10 14:05:00,
2013-04-10 10:10:00,68.9,51.6,29.88,SE,130,2.0,5.0,54,0.00,SCT,,0.00,WeatherDisplay:10.37,2013-04-10 14:10:00,
2013-04-10 10:15:00,69.1,51.2,29.88,South,187,1.0,5.0,53,0.00,SCT,,0.00,WeatherDisplay:10.37,2013-04-10 14:15:00,
2013-04-10 10:20:00,69.6,52.2,29.88,South,172,1.0,5.0,54,0.00,SCT,,0.00,WeatherDisplay:10.37,2013-04-10 14:20:00,
2013-04-10 10:25:00,70.2,51.8,29.88,SE,130,2.0,5.0,52,0.00,SCT,,0.00,WeatherDisplay:10.37,2013-04-10 14:25:00,
2013-04-10 10:30:00,70.8,52.3,29.87,ESE,108,2.0,6.0,52,0.00,SCT,,0.00,WeatherDisplay:10.37,2013-04-10 14:30:00,
2013-04-10 10:35:00,71.8,52.7,29.87,East,99,1.0,6.0,51,0.00,SCT,,0.00,WeatherDisplay:10.37,2013-04-10 14:35:00,
2013-04-10 10:40:00,72.5,52.8,29.88,ESE,107,2.0,4.0,50,0.00,SCT,,0.00,WeatherDisplay:10.37,2013-04-10 14:40:00,
2013-04-10 10:45:00,72.9,53.2,29.88,SE,125,2.0,5.0,50,0.00,SCT,,0.00,WeatherDisplay:10.37,2013-04-10 14:45:00,
2013-04-10 10:50:00,73.4,53.1,29.88,ESE,123,1.0,3.0,49,0.00,SCT,,0.00,WeatherDisplay:10.37,2013-04-10 14:50:00,
2013-04-10 10:55:00,74.5,54.0,29.88,East,96,1.0,3.0,49,0.00,SCT,,0.00,WeatherDisplay:10.37,2013-04-10 14:55:00,
2013-04-10 11:00:00,74.7,53.7,29.88,South,176,1.0,4.0,48,0.00,SCT,,0.00,WeatherDisplay:10.37,2013-04-10 15:00:00,
2013-04-10 11:05:00,74.6,53.6,29.88,SW,226,1.0,5.0,48,0.00,SCT,,0.00,WeatherDisplay:10.37,2013-04-10 15:05:00,
2013-04-10 11:15:00,74.3,53.9,29.87,NW,317,0.0,5.0,49,0.00,SCT,,0.00,WeatherDisplay:10.37,2013-04-10 15:15:00,
2013-04-10 11:25:00,75.5,53.8,29.87,NNE,28,1.0,4.0,47,0.00,SCT,,0.00,WeatherDisplay:10.37,2013-04-10 15:25:00,
2013-04-10 11:30:00,75.7,54.1,29.87,WSW,244,2.0,4.0,47,0.00,SCT,,0.00,WeatherDisplay:10.37,2013-04-10 15:30:00,
2013-04-10 11:35:00,76.1,54.4,29.87,SSW,204,0.0,6.0,47,0.00,SCT,,0.00,WeatherDisplay:10.37,2013-04-10 15:35:00,
2013-04-10 11:40:00,77.1,54.7,29.87,WSW,243,2.0,6.0,46,0.00,SCT,,0.00,WeatherDisplay:10.37,2013-04-10 15:40:00,
2013-04-10 11:45:00,77.4,54.4,29.87,West,265,3.0,6.0,45,0.00,SCT,,0.00,WeatherDisplay:10.37,2013-04-10 15:45:00,
2013-04-10 11:55:00,77.7,54.7,29.88,SSW,199,3.0,8.0,45,0.00,SCT,,0.00,WeatherDisplay:10.37,2013-04-10 15:55:00,
2013-04-10 12:00:00,77.7,54.7,29.88,SSW,211,3.0,6.0,45,0.00,SCT,,0.00,WeatherDisplay:10.37,2013-04-10 16:00:00,
2013-04-10 12:10:00,77.7,54.7,29.87,SSW,201,1.0,5.0,45,0.00,CLR,,0.00,WeatherDisplay:10.37,2013-04-10 16:10:00,
2013-04-10 12:20:00,79.9,56.0,29.87,East,86,1.0,6.0,44,0.00,CLR,,0.00,WeatherDisplay:10.37,2013-04-10 16:20:00,
2013-04-10 12:25:00,80.8,55.5,29.87,ESE,110,3.0,6.0,42,0.00,CLR,,0.00,WeatherDisplay:10.37,2013-04-10 16:25:00,
2013-04-10 12:30:00,81.3,56.0,29.86,ESE,116,5.0,7.0,42,0.00,CLR,,0.00,WeatherDisplay:10.37,2013-04-10 16:30:00,
2013-04-10 12:35:00,81.8,56.5,29.86,ESE,122,2.0,6.0,42,0.00,CLR,,0.00,WeatherDisplay:10.37,2013-04-10 16:35:00,
2013-04-10 12:40:00,81.9,56.5,29.86,ESE,117,1.0,8.0,42,0.00,CLR,,0.00,WeatherDisplay:10.37,2013-04-10 16:40:00,
2013-04-10 12:45:00,82.3,56.9,29.86,ENE,66,2.0,6.0,42,0.00,CLR,,0.00,WeatherDisplay:10.37,2013-04-10 16:45:00,
2013-04-10 12:50:00,82.4,57.0,29.85,WSW,256,3.0,6.0,42,0.00,CLR,,0.00,WeatherDisplay:10.37,2013-04-10 16:50:00,
2013-04-10 12:55:00,82.6,57.8,29.85,SW,222,3.0,8.0,43,0.00,CLR,,0.00,WeatherDisplay:10.37,2013-04-10 16:55:00,
2013-04-10 13:00:00,82.9,58.1,29.85,SSE,166,2.0,6.0,43,0.00,CLR,,0.00,WeatherDisplay:10.37,2013-04-10 17:00:00,
2013-04-10 13:05:00,83.5,58.0,29.85,North,352,2.0,7.0,42,0.00,CLR,,0.00,WeatherDisplay:10.37,2013-04-10 17:05:00,
2013-04-10 13:10:00,84.1,58.5,29.84,SW,217,2.0,8.0,42,0.00,CLR,,0.00,WeatherDisplay:10.37,2013-04-10 17:10:00,
2013-04-10 13:15:00,84.2,57.3,29.85,South,178,2.0,8.0,40,0.00,CLR,,0.00,WeatherDisplay:10.37,2013-04-10 17:15:00,
2013-04-10 13:20:00,84.2,57.3,29.84,South,183,3.0,10.0,40,0.00,CLR,,0.00,WeatherDisplay:10.37,2013-04-10 17:20:00,
2013-04-10 13:25:00,85.3,59.6,29.84,WSW,251,5.0,8.0,42,0.00,CLR,,0.00,WeatherDisplay:10.37,2013-04-10 17:25:00,
2013-04-10 13:30:00,86.0,57.4,29.84,NNW,328,7.0,10.0,38,0.00,CLR,,0.00,WeatherDisplay:10.37,2013-04-10 17:30:00,
2013-04-10 13:35:00,85.8,58.7,29.84,WNW,295,3.0,9.0,40,0.00,CLR,,0.00,WeatherDisplay:10.37,2013-04-10 17:35:00,
2013-04-10 13:45:00,87.1,59.1,29.83,NNW,346,1.0,8.0,39,0.00,CLR,,0.00,WeatherDisplay:10.37,2013-04-10 17:45:00,
2013-04-10 13:50:00,88.0,57.7,29.83,WNW,286,3.0,6.0,36,0.00,CLR,,0.00,WeatherDisplay:10.37,2013-04-10 17:50:00,
2013-04-10 13:55:00,87.8,56.8,29.83,West,278,7.0,11.0,35,0.00,CLR,,0.00,WeatherDisplay:10.37,2013-04-10 17:55:00,
2013-04-10 14:00:00,87.4,58.0,29.83,West,273,5.0,10.0,37,0.00,CLR,,0.00,WeatherDisplay:10.37,2013-04-10 18:00:00,
2013-04-10 14:05:00,86.7,57.3,29.83,WNW,288,2.0,8.0,37,0.00,SCT,,0.00,WeatherDisplay:10.37,2013-04-10 18:05:00,
2013-04-10 14:10:00,86.1,57.5,29.83,NW,326,3.0,6.0,38,0.00,SCT,,0.00,WeatherDisplay:10.37,2013-04-10 18:10:00,
2013-04-10 14:15:00,85.7,57.9,29.83,NW,320,3.0,5.0,39,0.00,SCT,,0.00,WeatherDisplay:10.37,2013-04-10 18:15:00,
2013-04-10 14:20:00,86.0,58.1,29.82,West,259,5.0,6.0,39,0.00,SCT,,0.00,WeatherDisplay:10.37,2013-04-10 18:20:00,
2013-04-10 14:25:00,86.1,57.6,29.82,SW,217,5.0,10.0,38,0.00,SCT,,0.00,WeatherDisplay:10.37,2013-04-10 18:25:00,
2013-04-10 14:30:00,85.3,57.5,29.82,South,182,3.0,8.0,39,0.00,SCT,,0.00,WeatherDisplay:10.37,2013-04-10 18:30:00,
2013-04-10 14:40:00,85.2,58.9,29.82,SE,139,2.0,6.0,41,0.00,SCT,,0.00,WeatherDisplay:10.37,2013-04-10 18:40:00,
2013-04-10 14:50:00,88.6,56.6,29.81,ESE,105,5.0,7.0,34,0.00,SCT,,0.00,WeatherDisplay:10.37,2013-04-10 18:50:00,
2013-04-10 14:55:00,88.7,55.9,29.81,ESE,112,2.0,6.0,33,0.00,SCT,,0.00,WeatherDisplay:10.37,2013-04-10 18:55:00,
2013-04-10 15:00:00,87.9,54.3,29.82,East,92,3.0,9.0,32,0.00,SCT,,0.00,WeatherDisplay:10.37,2013-04-10 19:00:00,
2013-04-10 15:05:00,86.8,54.2,29.82,East,99,5.0,10.0,33,0.00,FEW,,0.00,WeatherDisplay:10.37,2013-04-10 19:05:00,
2013-04-10 15:10:00,84.7,54.0,29.82,ENE,78,5.0,8.0,35,0.00,FEW,,0.00,WeatherDisplay:10.37,2013-04-10 19:10:00,
2013-04-10 15:15:00,83.0,54.0,29.82,ENE,74,7.0,12.0,37,0.00,FEW,,0.00,WeatherDisplay:10.37,2013-04-10 19:15:00,
2013-04-10 15:20:00,81.2,51.7,29.81,East,84,6.0,10.0,36,0.00,FEW,,0.00,WeatherDisplay:10.37,2013-04-10 19:20:00,
2013-04-10 15:25:00,80.0,52.8,29.82,East,82,5.0,9.0,39,0.00,FEW,,0.00,WeatherDisplay:10.37,2013-04-10 19:25:00,
2013-04-10 15:30:00,79.5,53.1,29.81,East,88,6.0,11.0,40,0.00,FEW,,0.00,WeatherDisplay:10.37,2013-04-10 19:30:00,
2013-04-10 15:35:00,79.9,53.4,29.81,East,87,5.0,10.0,40,0.00,FEW,,0.00,WeatherDisplay:10.37,2013-04-10 19:35:00,
2013-04-10 15:40:00,80.2,53.7,29.81,East,85,3.0,8.0,40,0.00,FEW,,0.00,WeatherDisplay:10.37,2013-04-10 19:40:00,
2013-04-10 15:45:00,80.4,53.9,29.81,ENE,60,5.0,12.0,40,0.00,FEW,,0.00,WeatherDisplay:10.37,2013-04-10 19:45:00,
2013-04-10 15:50:00,81.4,54.1,29.81,ENE,76,6.0,13.0,39,0.00,FEW,,0.00,WeatherDisplay:10.37,2013-04-10 19:50:00,
2013-04-10 15:55:00,81.7,53.6,29.80,East,89,6.0,13.0,38,0.00,FEW,,0.00,WeatherDisplay:10.37,2013-04-10 19:55:00,
2013-04-10 16:00:00,80.7,52.8,29.80,East,89,5.0,8.0,38,0.00,FEW,,0.00,WeatherDisplay:10.37,2013-04-10 20:00:00,
2013-04-10 16:05:00,79.5,53.0,29.80,East,82,5.0,14.0,40,0.00,FEW,,0.00,WeatherDisplay:10.37,2013-04-10 20:05:00,
2013-04-10 16:10:00,78.4,54.0,29.80,ENE,78,5.0,10.0,43,0.00,FEW,,0.00,WeatherDisplay:10.37,2013-04-10 20:10:00,
2013-04-10 16:15:00,77.3,53.0,29.80,ENE,60,7.0,12.0,43,0.00,FEW,,0.00,WeatherDisplay:10.37,2013-04-10 20:15:00,
2013-04-10 16:20:00,76.5,53.5,29.81,ENE,60,3.0,10.0,45,0.00,FEW,,0.00,WeatherDisplay:10.37,2013-04-10 20:20:00,
2013-04-10 16:25:00,75.9,53.0,29.80,East,86,5.0,13.0,45,0.00,FEW,,0.00,WeatherDisplay:10.37,2013-04-10 20:25:00,
2013-04-10 16:35:00,74.8,53.3,29.80,ESE,106,2.0,9.0,47,0.00,FEW,,0.00,WeatherDisplay:10.37,2013-04-10 20:35:00,
2013-04-10 16:40:00,74.5,52.9,29.81,East,86,8.0,12.0,47,0.00,FEW,,0.00,WeatherDisplay:10.37,2013-04-10 20:40:00,
2013-04-10 16:50:00,73.4,52.5,29.81,East,80,3.0,12.0,48,0.00,FEW,,0.00,WeatherDisplay:10.37,2013-04-10 20:50:00,
2013-04-10 16:55:00,73.0,52.2,29.80,East,88,6.0,8.0,48,0.00,FEW,,0.00,WeatherDisplay:10.37,2013-04-10 20:55:00,
2013-04-10 17:00:00,72.5,52.2,29.80,ENE,77,6.0,9.0,49,0.00,FEW,,0.00,WeatherDisplay:10.37,2013-04-10 21:00:00,
2013-04-10 17:10:00,72.0,53.9,29.81,ENE,70,3.0,10.0,53,0.00,BKN,,0.00,WeatherDisplay:10.37,2013-04-10 21:10:00,
2013-04-10 17:15:00,72.0,54.0,29.80,ENE,73,6.0,11.0,53,0.00,BKN,,0.00,WeatherDisplay:10.37,2013-04-10 21:15:00,
2013-04-10 17:20:00,72.0,53.4,29.80,East,86,3.0,9.0,52,0.00,BKN,,0.00,WeatherDisplay:10.37,2013-04-10 21:20:00,
2013-04-10 17:25:00,72.0,53.4,29.80,East,94,3.0,7.0,52,0.00,BKN,,0.00,WeatherDisplay:10.37,2013-04-10 21:25:00,
2013-04-10 17:30:00,72.0,53.4,29.80,East,87,5.0,12.0,52,0.00,BKN,,0.00,WeatherDisplay:10.37,2013-04-10 21:30:00,
2013-04-10 17:35:00,71.6,53.0,29.81,East,98,6.0,8.0,52,0.00,BKN,,0.00,WeatherDisplay:10.37,2013-04-10 21:35:00,
2013-04-10 17:40:00,71.3,53.3,29.80,East,92,5.0,8.0,53,0.00,BKN,,0.00,WeatherDisplay:10.37,2013-04-10 21:40:00,
2013-04-10 17:45:00,59.7,59.4,29.78,SW,224,1.0,2.0,99,0.00,CLR,,0.00,WeatherDisplay:10.37,2013-04-10 21:45:00,
2013-04-10 17:50:00,70.8,52.8,29.80,ESE,107,3.0,8.0,53,0.00,BKN,,0.00,WeatherDisplay:10.37,2013-04-10 21:50:00,
2013-04-10 17:55:00,70.5,52.6,29.80,ESE,107,3.0,6.0,53,0.00,BKN,,0.00,WeatherDisplay:10.37,2013-04-10 21:55:00,
2013-04-10 18:00:00,70.3,52.4,29.80,ESE,103,3.0,6.0,53,0.00,BKN,,0.00,WeatherDisplay:10.37,2013-04-10 22:00:00,
2013-04-10 18:05:00,70.1,52.7,29.80,ESE,104,5.0,8.0,54,0.00,SCT,,0.00,WeatherDisplay:10.37,2013-04-10 22:05:00,
2013-04-10 18:10:00,69.6,52.7,29.79,ESE,110,3.0,8.0,55,0.00,SCT,,0.00,WeatherDisplay:10.37,2013-04-10 22:10:00,
2013-04-10 18:15:00,69.2,52.8,29.78,East,99,3.0,7.0,56,0.00,SCT,,0.00,WeatherDisplay:10.37,2013-04-10 22:15:00,
2013-04-10 18:20:00,68.9,52.6,29.79,East,81,1.0,6.0,56,0.00,SCT,,0.00,WeatherDisplay:10.37,2013-04-10 22:20:00,
2013-04-10 18:25:00,68.7,52.4,29.79,East,86,3.0,7.0,56,0.00,SCT,,0.00,WeatherDisplay:10.37,2013-04-10 22:25:00,
2013-04-10 18:30:00,68.5,52.7,29.79,ENE,70,3.0,6.0,57,0.00,SCT,,0.00,WeatherDisplay:10.37,2013-04-10 22:30:00,
2013-04-10 18:35:00,68.2,52.4,29.79,ENE,65,2.0,6.0,57,0.00,SCT,,0.00,WeatherDisplay:10.37,2013-04-10 22:35:00,
2013-04-10 18:40:00,67.9,52.6,29.79,East,89,2.0,6.0,58,0.00,SCT,,0.00,WeatherDisplay:10.37,2013-04-10 22:40:00,
2013-04-10 18:45:00,67.6,52.8,29.86,ENE,57,6.0,9.0,59,0.00,SCT,,0.00,WeatherDisplay:10.37,2013-04-10 22:45:00,
2013-04-10 18:50:00,67.5,53.5,29.89,NW,326,6.0,13.0,61,0.00,SCT,,0.00,WeatherDisplay:10.37,2013-04-10 22:50:00,
2013-04-10 18:55:00,67.1,53.2,29.84,NW,321,2.0,12.0,61,0.00,SCT,,0.00,WeatherDisplay:10.37,2013-04-10 22:55:00,
2013-04-10 19:00:00,67.1,54.1,29.85,NE,47,5.0,9.0,63,0.00,SCT,,0.00,WeatherDisplay:10.37,2013-04-10 23:00:00,
2013-04-10 19:05:00,67.1,54.5,29.85,North,356,6.0,11.0,64,0.00,BKN,,0.00,WeatherDisplay:10.37,2013-04-10 23:05:00,
2013-04-10 19:10:00,66.9,55.2,29.85,North,356,5.0,10.0,66,0.00,BKN,,0.00,WeatherDisplay:10.37,2013-04-10 23:10:00,
2013-04-10 19:15:00,66.4,55.5,29.83,North,10,5.0,9.0,68,0.00,BKN,,0.00,WeatherDisplay:10.37,2013-04-10 23:15:00,
2013-04-10 19:20:00,65.9,56.2,29.81,NNE,21,6.0,11.0,71,0.00,BKN,,0.00,WeatherDisplay:10.37,2013-04-10 23:20:00,
2013-04-10 19:25:00,64.9,56.8,29.80,NE,49,3.0,10.0,75,0.00,BKN,,0.00,WeatherDisplay:10.37,2013-04-10 23:25:00,
2013-04-10 19:30:00,63.8,56.5,29.81,ENE,71,5.0,8.0,77,0.00,BKN,,0.00,WeatherDisplay:10.37,2013-04-10 23:30:00,
2013-04-10 19:35:00,63.3,56.3,29.80,East,79,3.0,6.0,78,0.00,BKN,,0.00,WeatherDisplay:10.37,2013-04-10 23:35:00,
2013-04-10 19:40:00,62.9,56.9,29.78,East,99,3.0,6.0,81,0.00,BKN,,0.00,WeatherDisplay:10.37,2013-04-10 23:40:00,
2013-04-10 19:45:00,59.9,59.6,29.84,NW,315,1.0,4.0,99,0.00,CLR,,0.00,WeatherDisplay:10.37,2013-04-10 23:45:00,
2013-04-10 19:50:00,61.7,57.5,29.78,ESE,114,2.0,8.0,86,0.00,BKN,,0.00,WeatherDisplay:10.37,2013-04-10 23:50:00,
2013-04-10 19:55:00,61.5,57.6,29.79,ENE,78,2.0,7.0,87,0.00, +RA,,0.00,WeatherDisplay:10.37,2013-04-10 23:55:00,
2013-04-10 20:00:00,61.3,57.4,29.78,East,81,3.0,6.0,87,0.00, +RA,,0.00,WeatherDisplay:10.37,2013-04-11 00:00:00,
2013-04-10 20:05:00,61.2,57.6,29.80,East,100,0.0,6.0,88,0.00,-RA,,0.00,WeatherDisplay:10.37,2013-04-11 00:05:00,
2013-04-10 20:10:00,61.1,57.5,29.79,SE,133,6.0,6.0,88,0.00,-RA,,0.00,WeatherDisplay:10.37,2013-04-11 00:10:00,
2013-04-10 20:15:00,61.0,58.0,29.78,SE,132,2.0,6.0,90,0.00,-RA,,0.00,WeatherDisplay:10.37,2013-04-11 00:15:00,
2013-04-10 20:20:00,60.7,57.7,29.79,ESE,122,2.0,6.0,90,0.00,-RA,,0.00,WeatherDisplay:10.37,2013-04-11 00:20:00,
2013-04-10 20:25:00,60.4,57.5,29.78,ESE,110,3.0,6.0,90,0.00,-RA,,0.00,WeatherDisplay:10.37,2013-04-11 00:25:00,
2013-04-10 20:30:00,60.3,57.3,29.79,East,95,3.0,5.0,90,0.00,-RA,,0.00,WeatherDisplay:10.37,2013-04-11 00:30:00,
2013-04-10 20:35:00,60.1,57.2,29.79,East,90,3.0,6.0,90,0.00,-RA,,0.00,WeatherDisplay:10.37,2013-04-11 00:35:00,
2013-04-10 20:40:00,60.1,57.1,29.79,East,101,2.0,6.0,90,0.00,-RA,,0.00,WeatherDisplay:10.37,2013-04-11 00:40:00,
2013-04-10 20:45:00,60.1,57.1,29.82,ESE,109,1.0,3.0,90,0.00,-RA,,0.00,WeatherDisplay:10.37,2013-04-11 00:45:00,
2013-04-10 20:50:00,60.1,57.1,29.82,SE,130,0.0,3.0,90,0.00,-RA,,0.00,WeatherDisplay:10.37,2013-04-11 00:50:00,
2013-04-10 20:55:00,60.1,57.1,29.83,SW,230,1.0,2.0,90,0.00,-RA,,0.00,WeatherDisplay:10.37,2013-04-11 00:55:00,
2013-04-10 21:00:00,60.1,57.1,29.82,ESE,113,1.0,2.0,90,0.00,-RA,,0.00,WeatherDisplay:10.37,2013-04-11 01:00:00,
2013-04-10 21:05:00,60.3,57.6,29.82,NNW,346,1.0,2.0,91,0.00,BKN,,0.00,WeatherDisplay:10.37,2013-04-11 01:05:00,
2013-04-10 21:10:00,60.3,57.6,29.80,North,10,2.0,3.0,91,0.00,BKN,,0.00,WeatherDisplay:10.37,2013-04-11 01:10:00,
2013-04-10 21:15:00,60.3,57.6,29.78,ENE,60,3.0,5.0,91,0.00,BKN,,0.00,WeatherDisplay:10.37,2013-04-11 01:15:00,
2013-04-10 21:20:00,60.3,57.6,29.78,East,80,3.0,6.0,91,0.00,BKN,,0.00,WeatherDisplay:10.37,2013-04-11 01:20:00,
2013-04-10 21:25:00,60.1,57.4,29.79,ESE,104,1.0,6.0,91,0.00,BKN,,0.00,WeatherDisplay:10.37,2013-04-11 01:25:00,
2013-04-10 21:30:00,59.7,57.1,29.78,East,81,2.0,6.0,91,0.00,BKN,,0.00,WeatherDisplay:10.37,2013-04-11 01:30:00,
2013-04-10 21:40:00,59.4,56.7,29.76,ENE,75,2.0,6.0,91,0.00,BKN,,0.00,WeatherDisplay:10.37,2013-04-11 01:40:00,
2013-04-10 21:45:00,59.4,56.7,29.77,ENE,74,2.0,6.0,91,0.00,BKN,,0.00,WeatherDisplay:10.37,2013-04-11 01:45:00,
2013-04-10 21:50:00,59.2,56.6,29.80,ENE,60,1.0,6.0,91,0.00,BKN,,0.00,WeatherDisplay:10.37,2013-04-11 01:50:00,
2013-04-10 21:55:00,59.2,57.2,29.90,NNW,327,13.0,21.0,93,0.00,BKN,,0.00,WeatherDisplay:10.37,2013-04-11 01:55:00,
2013-04-10 22:00:00,59.2,57.5,29.87,NW,312,1.0,21.0,94,0.00,BKN,,0.00,WeatherDisplay:10.37,2013-04-11 02:00:00,
2013-04-10 22:10:00,59.7,58.3,29.88,SSE,154,1.0,2.0,95,0.00,FEW,,0.00,WeatherDisplay:10.37,2013-04-11 02:10:00,
2013-04-10 22:15:00,59.7,58.3,29.88,West,274,2.0,4.0,95,0.00, +RA,,0.00,WeatherDisplay:10.37,2013-04-11 02:15:00,
2013-04-10 22:20:00,59.7,58.6,29.87,NW,314,2.0,3.0,96,0.00, +RA,,0.00,WeatherDisplay:10.37,2013-04-11 02:20:00,
2013-04-10 22:25:00,59.9,58.8,29.87,NNW,334,1.0,3.0,96,0.00, +RA,,0.00,WeatherDisplay:10.37,2013-04-11 02:25:00,
2013-04-10 22:30:00,59.9,58.8,29.85,ESE,117,1.0,2.0,96,0.00, +RA,,0.00,WeatherDisplay:10.37,2013-04-11 02:30:00,
2013-04-10 22:40:00,59.9,59.0,29.86,SE,139,1.0,3.0,97,0.00, +RA,,0.00,WeatherDisplay:10.37,2013-04-11 02:40:00,
2013-04-10 22:45:00,59.7,58.9,29.86,SE,140,1.0,2.0,97,0.00,-RA,,0.00,WeatherDisplay:10.37,2013-04-11 02:45:00,
2013-04-10 22:50:00,59.7,58.9,29.87,SSE,158,2.0,3.0,97,0.00,-RA,,0.00,WeatherDisplay:10.37,2013-04-11 02:50:00,
2013-04-10 22:55:00,59.6,58.8,29.86,SSE,158,1.0,3.0,97,0.00,-RA,,0.00,WeatherDisplay:10.37,2013-04-11 02:55:00,
2013-04-10 23:00:00,59.5,59.0,29.86,ESE,121,0.0,2.0,98,0.00,-RA,,0.00,WeatherDisplay:10.37,2013-04-11 03:00:00,
2013-04-10 23:05:00,59.7,59.2,29.85,ESE,105,1.0,3.0,98,0.00,-RA,,0.00,WeatherDisplay:10.37,2013-04-11 03:05:00,
2013-04-10 23:10:00,59.7,59.2,29.84,ESE,116,1.0,2.0,98,0.00,-RA,,0.00,WeatherDisplay:10.37,2013-04-11 03:10:00,
2013-04-10 23:15:00,59.7,59.4,29.84,ESE,117,1.0,2.0,99,0.00,OVC,,0.00,WeatherDisplay:10.37,2013-04-11 03:15:00,
2013-04-10 23:20:00,59.7,59.4,29.83,ESE,123,1.0,2.0,99,0.00,OVC,,0.00,WeatherDisplay:10.37,2013-04-11 03:20:00,
2013-04-10 23:25:00,59.7,59.4,29.83,ESE,108,1.0,2.0,99,0.00,OVC,,0.00,WeatherDisplay:10.37,2013-04-11 03:25:00,
2013-04-10 23:30:00,59.9,59.6,29.82,East,93,1.0,3.0,99,0.00,OVC,,0.00,WeatherDisplay:10.37,2013-04-11 03:30:00,
2013-04-10 23:35:00,59.7,59.4,29.81,East,80,1.0,3.0,99,0.00,OVC,,0.00,WeatherDisplay:10.37,2013-04-11 03:35:00,
2013-04-10 23:40:00,59.7,59.4,29.80,ENE,75,1.0,2.0,99,0.00,OVC,,0.00,WeatherDisplay:10.37,2013-04-11 03:40:00,
2013-04-10 23:45:00,59.5,59.3,29.80,ESE,105,2.0,6.0,99,0.00,OVC,,0.00,WeatherDisplay:10.37,2013-04-11 03:45:00,
2013-04-10 23:50:00,59.5,59.3,29.79,SE,129,1.0,3.0,99,0.00,OVC,,0.00,WeatherDisplay:10.37,2013-04-11 03:50:00,
2013-04-10 23:55:00,59.4,59.1,29.80,SE,146,2.0,4.0,99,0.00,-RA,,0.00,WeatherDisplay:10.37,2013-04-11 03:55:00,